Погода в Джорджтауне

Гайана     6°48′25″N   58°07′15″W
темп.,
°C
ветер,
м/с
пор.,
м/с
влажн.,
%
обл.,
%
осадки,
мм/ч
давл.,
гПа
погр.,
м
9 августа, вт
вт923:00+27всв3581100 0.1 1012362
02:00+26в468334 1.0 1010376
05:00+25в478951 4.7 1011270
08:00+28вюв4682100 5.5 1013790
11:00+30в4667100 1.6 10141128
14:00+30в5565100 1.8 1011957
17:00+28всв5773100 0.0 1011578
20:00+27всв4779100 0.1 1013385
10 августа, ср
ср1023:00+27всв4780100 0.1 1013429
02:00+27всв357897 0.4 1011278
05:00+26вюв368648 2.3 1012300
08:00+27вюв478240 4.1 1014530
11:00+30вюв566378 0.8 10141238
14:00+30в55655 1.3 1012811
17:00+28всв4673100 0.0 1011602
20:00+27всв368193 0.0 1013317
11 августа, чт
чт1123:00+27всв478125 0.3 1013396
02:00+27всв47795 0.9 1011391
05:00+26всв36866 2.5 1012287
08:00+28всв35860 4.3 1014382
11:00+30в34685 0.9 1013939
14:00+30всв446635 1.1 10111118
17:00+28всв4574100 0.1 1011731
20:00+27всв47805 0.1 1012436
12 августа, пт
пт1223:00+26всв468720 1.3 1014432
02:00+26всв468723 2.0 1011459
05:00+26всв368824 2.5 1012374
08:00+28в34855 4.6 1014462
11:00+28всв337815 1.4 1014726
14:00+30всв446680 2.3 10111118
17:00+29в34745 0.2 1011758
20:00+27всв35835 0.2 1012348
13 августа, сб
сб1323:00+26всв358813 1.7 1013283
02:00+26всв478948 3.2 1011367
05:00+25в3686100 1.5 1012348
08:00+27вюв478697 3.4 1014576
11:00+28вюв468190 1.4 1014804
14:00+30в57665 1.8 10111019
17:00+28всв46745 0.0 1011663
20:00+26всв59866 1.2 1012355